Location: Hiram
(41.3130°N, 81.1440°W)
Time: 21:41:57
(UTC-04:00)

Iridium 62 - Visible Passes

Search period start: 31 July 2014 00:00
Search period end: 10 August 2014 00:00
Orbit: 776 x 779 km, 86.4° (Epoch: 31 July)

Date Brightness Start Highest point End Pass type
(mag) Time Alt. Az. Time Alt. Az. Time Alt. Az.
31 Jul 7.3 00:23:23 26° ENE 00:23:23 26° ENE 00:26:53 10° NNE visible
31 Jul 7.1 02:03:52 32° WNW 02:03:52 32° WNW 02:07:47 10° NNW visible
31 Jul 7.9 23:49:58 15° ENE 23:49:58 15° ENE 23:52:15 10° NE visible
01 Aug 6.5 01:30:26 51° NW 01:30:26 51° NW 01:34:36 10° N visible
02 Aug 6.4 00:57:01 54° NNE 00:57:01 54° NNE 01:01:07 10° N visible
02 Aug 8.1 02:37:29 13° WNW 02:37:29 13° WNW 02:39:32 10° NW visible
03 Aug 6.9 00:23:35 35° ENE 00:23:35 35° ENE 00:27:19 10° NNE visible
03 Aug 7.6 02:04:03 23° WNW 02:04:03 23° WNW 02:07:28 10° NNW visible
03 Aug 7.5 23:50:09 21° ENE 23:50:09 21° ENE 23:53:08 10° NNE visible
04 Aug 6.9 01:30:37 37° NW 01:30:37 37° NW 01:34:32 10° NNW visible
04 Aug 8.0 23:16:43 12° ENE 23:16:43 12° ENE 23:17:54 10° NE visible
05 Aug 6.4 00:57:11 54° NNW 00:57:11 54° NNW 01:01:13 10° N visible
06 Aug 6.6 00:23:44 45° NE 00:23:44 45° NE 00:27:36 10° N visible
06 Aug 8.0 02:04:12 16° WNW 02:04:12 16° WNW 02:06:52 10° NW visible
06 Aug 7.1 23:50:17 28° ENE 23:50:17 28° ENE 23:53:41 10° NNE visible
07 Aug 7.4 01:30:45 28° WNW 01:30:45 28° WNW 01:34:20 10° NNW visible
07 Aug 7.7 23:16:49 17° ENE 23:16:49 17° ENE 23:19:14 10° NE visible
08 Aug 6.8 00:57:17 44° NW 00:57:17 44° NW 01:01:13 10° N visible
09 Aug 6.4 00:23:49 53° N 00:23:49 53° N 00:27:47 10° N visible
09 Aug 8.3 02:04:17 11° WNW 02:04:17 11° WNW 02:05:30 10° NW visible
09 Aug 6.8 23:50:21 38° NE 23:50:21 38° NE 23:54:03 10° NNE visible
